Hourly Data Report for August 15, 2017

All times are specified in Local Standard Time (LST). Add 1 hour to adjust for Daylight Saving Time where and when it is observed.

ST. STEPHEN
NEW BRUNSWICK

45°12'36.600" N
67°15'10.300" W
26.10 m
8104935
71607
WSS

Download Data

Hourly Data (August 2017)
Hourly Data Report for August 15, 2017
Temp Definition
°C
Dew Point Temp Definition
°C
Rel Hum Definition
%
Wind Dir Definition
10's deg

Wind Spd Definition
km/h
Visibility Definition
km
Stn Press Definition
kPa
Hmdx Definition


Wind Chill Definition


Weather Definition


TIME
00:00 14.2 12.4 89   0   101.17     LegendNANA
01:00 13.1 11.9 93   0   101.16     LegendNANA
02:00 12.3 11.5 95   0   101.14     LegendNANA
03:00 11.6 10.8 95   0   101.13     LegendNANA
04:00 11.0 10.3 96   0   101.14     LegendNANA
05:00 10.4 9.7 96   0   101.14     LegendNANA
06:00 10.4 9.8 96 0 1   101.17     LegendNANA
07:00 13.2 12.7 97 0 1   101.17     LegendNANA
08:00 16.7 14.2 85 8 4   101.14     LegendNANA
09:00 20.5 15.7 74 7 9   101.10 25   LegendNANA
10:00 21.7 15.9 69 10 8   101.09 26   LegendNANA
11:00 23.7 16.6 64 9 10   101.05 29   LegendNANA
12:00 23.8 16.3 63 9 14   100.99 29   LegendNANA
13:00 24.9 17.1 62 11 15   100.96 30   LegendNANA
14:00 26.7 14.0 46 16 17   100.93 30   LegendNANA
15:00 25.0 14.3 51 17 21   100.93 29   LegendNANA
16:00 24.4 17.1 64 15 13   100.90 30   LegendNANA
17:00 22.7 17.5 72 18 15   100.87 28   LegendNANA
18:00 20.9 17.9 83 16 9   100.87 27   LegendNANA
19:00 20.4 17.8 85 17 13   100.86 26   LegendNANA
20:00 19.4 17.5 89 18 8   100.86     LegendNANA
21:00 19.0 17.5 91 16 5   100.84     LegendNANA
22:00 18.4 17.2 93 11 1   100.82     LegendNANA
23:00 18.5 17.4 93 17 3   100.78     LegendNANA

Notes on Data Quality.

Legend

  • E = Estimated
  • M = Missing
  • NA = Not Available
  • ‡ = Partner data that is not subject to review by the National Climate Archives
Date modified: